User: anonymous
Location: Plymouth
(43.7570°N, 71.6890°W)
Time: 03:05:17
(UTC-04:00)
Language:

Meteor 1-28 Rocket - Orbit

View from above orbital plane
View from above orbital plane
View from above satellite
View from above satellite

Ground track
Ground track

The orbit data is extracted from the following two-line orbital elements,

1 10114U 77057B   14107.89272389  .00003161  00000-0  18147-3 0  2240
2 10114 097.2794 330.9323 0016081 036.9631 323.2705 15.13122154  8447
Epoch (UTC): 17 April 2014 21:25:31
Eccentricity: 0.0016081
inclination: 97.2794°
perigee height: 515 km
apogee height: 538 km
right ascension of ascending node: 330.9323°
argument of perigee: 36.9631°
revolutions per day: 15.13122154
mean anomaly at epoch: 323.2705°
orbit number at epoch: 844

The dashed part of the orbit path shows where the satellite is in the earth's shadow,  

DLR